Retour au catalogue

SCOUT G-1 R/B

ActifPO
NORAD 18363·ROCKET BODY·🇺🇸 United States

Lancé Sep 16, 1987 depuis Vandenberg Space Force Base

Loading…

Prochains Passages (prochaines 24 heures)

TLE

FraisSource: Space-Track

Époque: Sep 14, 2026, 01:29 UTC

1 18363U 87080C   26257.06230012  .00000048  00000-0  66699-4 0  9992
2 18363  90.3625  89.6099 0103441 195.7907 327.5579 13.44184166911782

Suivez SCOUT G-1 R/B en temps réel avec AllMySat

Download on the App Store